Location: Santa Clara
(37.3540°N, 121.9540°W)
Time: 14:02:54
(UTC-08:00)

X-37B - Visible Passes

Search period start: 22 January 2022 00:00
Search period end: 01 February 2022 00:00
Orbit: 334 x 337 km, 45.0° (Epoch: 11 January)

Date Brightness Start Highest point End Pass type
(mag) Time Alt. Az. Time Alt. Az. Time Alt. Az.
23 Jan 2.8 18:58:17 10° S 18:59:02 14° S 18:59:02 14° S visible
24 Jan 2.7 19:17:50 10° SW 19:18:59 21° SW 19:18:59 21° SW visible
25 Jan 2.2 18:03:44 10° S 18:05:46 18° SE 18:07:37 11° E visible
25 Jan 3.6 19:38:18 10° WSW 19:38:52 15° W 19:38:52 15° W visible
26 Jan 0.5 18:23:16 10° SW 18:26:03 55° SSE 18:27:26 25° E visible
27 Jan 0.8 18:43:43 10° WSW 18:46:29 50° NNW 18:47:10 38° NNE visible
28 Jan 2.1 19:04:38 10° WNW 19:06:51 25° NNW 19:06:51 25° NNW visible
29 Jan 3.2 19:25:44 10° NW 19:26:30 14° NW 19:26:30 14° NW visible
30 Jan 1.9 18:10:04 10° WNW 18:12:31 25° NNW 18:14:53 11° NE visible
31 Jan 2.4 18:31:09 10° NW 18:33:14 18° N 18:34:28 14° NNE visible
